This demonstration page uses our WeatherBlox Daily Observations layout. Learn more.

Left ArrowRight Arrow

41.12389, -100.76542

Hourly Observations for June 25, 2020

Temp ( °F °C ) Dew Point ( °F °C ) Humidity (%) Winds ( mph kmh ) Pressure ( in mb ) Visibility ( mi km ) Precip ( " mm )
12:53 am 00:53 Clear 68 20 61 16.1 78 78 ESE 9 15 29.81 1009 10 16 0.00 0.00
1:53 am 01:53 Clear 66 18.9 61 16.1 84 84 ESE 9 15 29.80 1009 10 16 0.00 0.00
2:53 am 02:53 Clear 64 17.8 60 15.6 87 87 ESE 10 17 29.78 1009 10 16 0.00 0.00
3:53 am 03:53 Clear 63 17.2 59 15 87 87 ESE 9 15 29.78 1008 10 16 0.00 0.00
4:53 am 04:53 Clear 62 16.7 59 15 90 90 E 9 15 29.77 1008 10 16 0.00 0.00
5:53 am 05:53 Clear 61 16.1 58 14.4 90 90 E 6 9 29.77 1008 9 14 0.00 0.00
6:53 am 06:53 Sunny 61 16.1 58 14.4 90 90 E 6 9 29.77 1008 7 11 0.00 0.00
7:53 am 07:53 Sunny 65 18.3 61 16.1 87 87 E 10 17 29.78 1008 10 16 0.00 0.00
8:53 am 08:53 Sunny 71 21.7 62 16.7 73 73 ESE 9 15 29.77 1008 10 16 0.00 0.00
9:53 am 09:53 Sunny 76 24.4 64 17.8 67 67 Calm 29.79 1009 10 16 0.00 0.00
10:53 am 10:53 Sunny 82 27.8 63 17.2 53 53 ESE 13 20 29.75 1007 10 16 0.00 0.00
11:53 am 11:53 Sunny 83 28.3 63 17.2 51 51 ESE 9 15 29.75 1008 10 16 0.00 0.00
12:53 pm 12:53 Sunny 88 31.1 63 17.2 43 43 ESE 15 24 29.73 1007 10 16 0.00 0.00
1:53 pm 13:53 Sunny 91 32.8 64 17.8 41 41 SE 12 19 29.72 1006 10 16 0.00 0.00
2:53 pm 14:53 Sunny 93 33.9 64 17.8 38 38 SE 12 19 29.70 1006 10 16 0.00 0.00
3:53 pm 15:53 Sunny 94 34.4 63 17.2 36 36 SE 9 15 29.69 1005 10 16 0.00 0.00
4:53 pm 16:53 Sunny 93 33.9 63 17.2 37 37 SE 8 13 29.67 1005 10 16 0.00 0.00
5:53 pm 17:53 Sunny 93 33.9 65 18.3 40 40 ESE 12 19 29.66 1004 10 16 0.00 0.00
6:53 pm 18:53 Sunny 87 30.6 68 20 53 53 ESE 8 13 29.65 1004 10 16 0.00 0.00
7:53 pm 19:53 Sunny 83 28.3 54 12.2 37 37 S 6 9 29.69 1005 10 16 0.00 0.00
8:53 pm 20:53 Cloudy 81 27.2 53 11.7 38 38 NE 13 20 29.71 1006 10 16 0.00 0.00
9:04 pm 21:04 Mostly Cloudy with Light Rain 82 27.8 53 11.7 37 37 ENE 14 22 29.60 1002 10 16 0.00 0.00
9:17 pm 21:17 Partly Cloudy 84 28.9 52 11.1 33 33 E 12 19 29.62 1003 10 16 0.00 0.00
9:53 pm 21:53 Clear 77 25 54 12.2 45 45 E 8 13 29.71 1006 10 16 0.00 0.00
10:53 pm 22:53 Partly Cloudy with Light Rain 76 24.4 59 15 56 56 NE 14 22 29.80 1009 10 16 0.01 0.25
11:32 pm 23:32 Mostly Clear with Nearby Thunderstorms 70 21.1 59 15 68 68 NW 20 31 29.87 1012 10 16 0.00 0.00
11:50 pm 23:50 Mostly Cloudy with Light Rain 70 21 59 15 69 69 NNW 10 17 29.88 1012 10 16 0.00 0.00
11:53 pm 23:53 Cloudy with Rain 69 20.6 60 15.6 73 73 NNW 9 15 29.91 1013 10 16 0.00 0.00

Powered by Vaisala Xweather